Photometre #855[NE_1.6_Dp] Loftus_MO AOT

File : 20220827_855.hum

27/08/2022,06:04:09,TEMP=12.5,BA=5.64,STAT.A,ExtBa=12.20
27/08/2022,06:08:34,TEMP=12.7,BA=5.64,STAT.A,ExtBa=12.20
27/08/2022,06:13:43,TEMP=12.8,BA=5.60,STAT.A,ExtBa=12.20
27/08/2022,06:19:49,TEMP=12.9,BA=5.60,STAT.A,ExtBa=12.20
27/08/2022,06:27:08,TEMP=13.2,BA=5.64,STAT.A,ExtBa=12.10
27/08/2022,06:36:07,TEMP=13.8,BA=5.64,STAT.A,ExtBa=12.20
27/08/2022,06:39:23,TEMP=14.6,BA=5.64,STAT.D,ExtBa=12.10
27/08/2022,06:42:23,TEMP=15.2,BA=5.60,STAT.D,ExtBa=12.10
27/08/2022,06:45:23,TEMP=15.9,BA=5.60,STAT.D,ExtBa=12.10
27/08/2022,06:47:25,TEMP=16.6,BA=5.60,STAT.B,ExtBa=12.10
27/08/2022,06:56:42,TEMP=18.5,BA=5.60,STAT.A,ExtBa=12.10
27/08/2022,06:59:18,TEMP=18.7,BA=5.60,STAT.A,ExtBa=12.10
27/08/2022,07:03:23,TEMP=18.9,BA=5.56,STAT.D,ExtBa=12.10
27/08/2022,07:05:38,TEMP=19.2,BA=5.56,STAT.A,ExtBa=12.10
27/08/2022,07:09:23,TEMP=19.2,BA=5.56,STAT.D,ExtBa=12.10
27/08/2022,07:12:23,TEMP=19.5,BA=5.56,STAT.D,ExtBa=12.10
27/08/2022,07:14:22,TEMP=19.8,BA=5.56,STAT.A,ExtBa=12.10
27/08/2022,07:22:05,TEMP=19.2,BA=5.56,STAT.C,ExtBa=12.10
27/08/2022,07:32:18,TEMP=19.0,BA=5.64,STAT.A,ExtBa=12.10
27/08/2022,07:44:18,TEMP=18.8,BA=5.64,STAT.A,ExtBa=12.10
27/08/2022,07:57:23,TEMP=18.8,BA=5.64,STAT.D,ExtBa=12.10
27/08/2022,07:59:23,TEMP=19.2,BA=5.64,STAT.A,ExtBa=12.10
27/08/2022,08:12:23,TEMP=18.7,BA=5.64,STAT.D,ExtBa=12.10
27/08/2022,08:16:20,TEMP=18.9,BA=5.64,STAT.A,ExtBa=12.10
27/08/2022,08:21:23,TEMP=19.2,BA=5.64,STAT.D,ExtBa=12.10
27/08/2022,08:24:23,TEMP=19.5,BA=5.64,STAT.D,ExtBa=12.10
27/08/2022,08:27:23,TEMP=19.7,BA=5.64,STAT.D,ExtBa=12.10
27/08/2022,08:38:45,TEMP=19.5,BA=5.64,STAT.B,ExtBa=12.10
27/08/2022,08:50:45,TEMP=19.2,BA=5.64,STAT.D,ExtBa=12.10
27/08/2022,08:54:24,TEMP=19.4,BA=5.64,STAT.D,ExtBa=12.10
27/08/2022,08:57:23,TEMP=19.7,BA=5.64,STAT.D,ExtBa=12.10
27/08/2022,09:00:25,TEMP=20.0,BA=5.64,STAT.D,ExtBa=12.10
27/08/2022,09:05:45,TEMP=20.2,BA=5.64,STAT.F,ExtBa=12.10
27/08/2022,09:30:39,TEMP=21.0,BA=5.56,STAT.b=11.0
27/08/2022,09:31:14,TEMP=21.0,BA=5.56,STAT.b=11.0
27/08/2022,09:33:23,TEMP=20.4,BA=5.56,STAT.D,ExtBa=12.10
27/08/2022,09:35:44,TEMP=20.5,BA=5.56,STAT.D,ExtBa=12.10
27/08/2022,09:48:24,TEMP=19.6,BA=5.56,STAT.D,ExtBa=12.10
27/08/2022,09:50:44,TEMP=20.0,BA=5.60,STAT.D,ExtBa=12.10
27/08/2022,09:57:09,TEMP=19.9,BA=5.60,STAT.D,ExtBa=12.10
27/08/2022,10:00:24,TEMP=20.3,BA=5.64,STAT.D,ExtBa=12.10
27/08/2022,10:03:24,TEMP=20.6,BA=5.64,STAT.D,ExtBa=12.10
27/08/2022,10:05:45,TEMP=20.8,BA=5.64,STAT.F,ExtBa=12.10
27/08/2022,10:12:24,TEMP=19.8,BA=5.64,STAT.D,ExtBa=12.10
27/08/2022,10:15:24,TEMP=19.7,BA=5.64,STAT.D,ExtBa=12.10
27/08/2022,10:18:24,TEMP=19.7,BA=5.64,STAT.D,ExtBa=12.10
27/08/2022,10:20:44,TEMP=20.0,BA=5.60,STAT.D,ExtBa=12.10
27/08/2022,10:24:24,TEMP=20.1,BA=5.60,STAT.D,ExtBa=12.10
27/08/2022,10:27:25,TEMP=20.3,BA=5.60,STAT.D,ExtBa=12.10
27/08/2022,10:30:24,TEMP=20.5,BA=5.64,STAT.D,ExtBa=12.10
27/08/2022,10:33:24,TEMP=20.6,BA=5.64,STAT.D,ExtBa=12.10
27/08/2022,10:35:44,TEMP=20.9,BA=5.64,STAT.D,ExtBa=12.10
27/08/2022,10:39:24,TEMP=20.9,BA=5.64,STAT.D,ExtBa=12.10
27/08/2022,10:42:24,TEMP=21.1,BA=5.52,STAT.D,ExtBa=12.10
27/08/2022,10:45:24,TEMP=21.3,BA=5.52,STAT.D,ExtBa=12.10
27/08/2022,10:48:24,TEMP=21.5,BA=5.52,STAT.D,ExtBa=12.10
27/08/2022,10:50:44,TEMP=21.7,BA=5.60,STAT.D,ExtBa=12.10
27/08/2022,10:54:24,TEMP=21.4,BA=5.60,STAT.D,ExtBa=12.10
27/08/2022,10:57:24,TEMP=21.4,BA=5.60,STAT.D,ExtBa=12.10
27/08/2022,11:00:24,TEMP=21.4,BA=5.64,STAT.D,ExtBa=12.10
27/08/2022,11:03:24,TEMP=21.3,BA=5.64,STAT.D,ExtBa=12.10
27/08/2022,11:05:46,TEMP=21.5,BA=5.64,STAT.F,ExtBa=12.10
27/08/2022,11:31:05,TEMP=22.1,BA=5.52,STAT.b=11.0
27/08/2022,11:31:23,TEMP=22.1,BA=5.52,STAT.b=11.0
27/08/2022,11:33:23,TEMP=21.6,BA=5.52,STAT.D,ExtBa=12.00
27/08/2022,11:35:44,TEMP=21.8,BA=5.52,STAT.D,ExtBa=12.00
27/08/2022,11:39:24,TEMP=21.3,BA=5.52,STAT.D,ExtBa=12.00
27/08/2022,11:42:24,TEMP=21.2,BA=5.52,STAT.D,ExtBa=12.00
27/08/2022,11:45:24,TEMP=21.3,BA=5.52,STAT.D,ExtBa=12.00
27/08/2022,11:48:24,TEMP=21.2,BA=5.52,STAT.D,ExtBa=12.00
27/08/2022,11:50:49,TEMP=21.2,BA=5.52,STAT.D,ExtBa=12.00
27/08/2022,11:54:24,TEMP=20.8,BA=5.52,STAT.D,ExtBa=12.00
27/08/2022,11:57:24,TEMP=20.8,BA=5.52,STAT.D,ExtBa=12.00
27/08/2022,12:00:24,TEMP=20.9,BA=5.60,STAT.D,ExtBa=12.00
27/08/2022,12:03:24,TEMP=20.9,BA=5.60,STAT.D,ExtBa=12.00
27/08/2022,12:05:46,TEMP=21.0,BA=5.60,STAT.F,ExtBa=12.00
27/08/2022,12:32:20,TEMP=21.4,BA=5.52,STAT.D,ExtBa=12.00
27/08/2022,12:35:44,TEMP=21.0,BA=5.52,STAT.D,ExtBa=12.00
27/08/2022,12:39:24,TEMP=20.9,BA=5.52,STAT.D,ExtBa=12.00
27/08/2022,12:42:24,TEMP=20.9,BA=5.52,STAT.D,ExtBa=12.00
27/08/2022,12:45:24,TEMP=20.9,BA=5.52,STAT.D,ExtBa=12.00
27/08/2022,12:48:24,TEMP=20.9,BA=5.52,STAT.D,ExtBa=12.00
27/08/2022,12:50:44,TEMP=21.0,BA=5.60,STAT.D,ExtBa=12.00
27/08/2022,12:54:24,TEMP=20.8,BA=5.60,STAT.D,ExtBa=12.00
27/08/2022,12:57:24,TEMP=20.8,BA=5.60,STAT.D,ExtBa=12.00
27/08/2022,13:00:24,TEMP=20.7,BA=5.60,STAT.D,ExtBa=12.00
27/08/2022,13:03:24,TEMP=20.7,BA=5.60,STAT.D,ExtBa=12.00
27/08/2022,13:05:46,TEMP=20.9,BA=5.60,STAT.F,ExtBa=12.00
27/08/2022,13:31:50,TEMP=21.7,BA=5.52,STAT.D,ExtBa=12.00
27/08/2022,13:35:44,TEMP=21.2,BA=5.52,STAT.D,ExtBa=12.00
27/08/2022,13:39:24,TEMP=21.1,BA=5.52,STAT.D,ExtBa=12.00
27/08/2022,13:42:24,TEMP=21.2,BA=5.52,STAT.D,ExtBa=12.00
27/08/2022,13:45:24,TEMP=21.3,BA=5.52,STAT.D,ExtBa=12.00
27/08/2022,13:48:24,TEMP=21.4,BA=5.52,STAT.D,ExtBa=12.00
27/08/2022,13:50:44,TEMP=21.5,BA=5.56,STAT.D,ExtBa=12.00
27/08/2022,13:54:24,TEMP=21.3,BA=5.56,STAT.D,ExtBa=12.00
27/08/2022,13:57:24,TEMP=21.3,BA=5.56,STAT.D,ExtBa=12.00
27/08/2022,14:00:24,TEMP=21.3,BA=5.60,STAT.D,ExtBa=12.00
27/08/2022,14:03:24,TEMP=21.3,BA=5.60,STAT.D,ExtBa=12.00
27/08/2022,14:05:45,TEMP=21.5,BA=5.60,STAT.F,ExtBa=12.00
27/08/2022,14:30:16,TEMP=21.7,BA=5.52,STAT.D,ExtBa=12.00
27/08/2022,14:35:44,TEMP=21.1,BA=5.52,STAT.D,ExtBa=12.00
27/08/2022,14:39:24,TEMP=21.1,BA=5.52,STAT.D,ExtBa=12.00
27/08/2022,14:42:24,TEMP=21.1,BA=5.52,STAT.D,ExtBa=12.00
27/08/2022,14:45:24,TEMP=21.2,BA=5.52,STAT.D,ExtBa=12.00
27/08/2022,14:48:24,TEMP=21.2,BA=5.52,STAT.D,ExtBa=12.00
27/08/2022,14:50:44,TEMP=21.3,BA=5.52,STAT.D,ExtBa=12.00
27/08/2022,14:57:19,TEMP=20.9,BA=5.52,STAT.D,ExtBa=12.00
27/08/2022,15:00:24,TEMP=21.1,BA=5.60,STAT.D,ExtBa=12.00
27/08/2022,15:03:24,TEMP=21.2,BA=5.60,STAT.D,ExtBa=12.00
27/08/2022,15:05:45,TEMP=21.3,BA=5.60,STAT.F,ExtBa=12.00
27/08/2022,15:30:04,TEMP=21.4,BA=5.52,STAT.D,ExtBa=12.00
27/08/2022,15:33:22,TEMP=20.9,BA=5.52,STAT.B,ExtBa=12.00
27/08/2022,15:45:23,TEMP=20.6,BA=5.52,STAT.D,ExtBa=12.00
27/08/2022,15:48:23,TEMP=20.7,BA=5.52,STAT.D,ExtBa=12.00
27/08/2022,15:51:23,TEMP=20.7,BA=5.52,STAT.D,ExtBa=12.00
27/08/2022,15:54:23,TEMP=20.6,BA=5.52,STAT.D,ExtBa=12.00
27/08/2022,15:56:25,TEMP=20.9,BA=5.52,STAT.A,ExtBa=12.00
27/08/2022,16:00:23,TEMP=20.4,BA=5.60,STAT.D,ExtBa=12.00
27/08/2022,16:03:23,TEMP=20.4,BA=5.60,STAT.D,ExtBa=12.00
27/08/2022,16:06:23,TEMP=20.4,BA=5.60,STAT.D,ExtBa=12.00
27/08/2022,16:09:23,TEMP=20.3,BA=5.60,STAT.D,ExtBa=12.00
27/08/2022,16:12:23,TEMP=20.2,BA=5.52,STAT.D,ExtBa=12.00
27/08/2022,16:14:23,TEMP=20.3,BA=5.52,STAT.A,ExtBa=12.00
27/08/2022,16:18:23,TEMP=19.6,BA=5.52,STAT.D,ExtBa=12.00
27/08/2022,16:21:23,TEMP=19.7,BA=5.52,STAT.D,ExtBa=12.00
27/08/2022,16:24:23,TEMP=19.8,BA=5.52,STAT.D,ExtBa=12.00
27/08/2022,16:27:12,TEMP=19.9,BA=5.52,STAT.A,ExtBa=12.00
27/08/2022,16:30:23,TEMP=19.9,BA=5.60,STAT.D,ExtBa=12.00
27/08/2022,16:33:23,TEMP=19.9,BA=5.60,STAT.D,ExtBa=12.00
27/08/2022,16:36:23,TEMP=19.9,BA=5.60,STAT.D,ExtBa=12.00
27/08/2022,16:39:12,TEMP=20.0,BA=5.60,STAT.A,ExtBa=12.00
27/08/2022,16:42:23,TEMP=19.9,BA=5.52,STAT.D,ExtBa=12.00
27/08/2022,16:45:23,TEMP=19.9,BA=5.52,STAT.D,ExtBa=12.00
27/08/2022,16:48:23,TEMP=19.8,BA=5.52,STAT.D,ExtBa=12.00
27/08/2022,16:50:22,TEMP=20.0,BA=5.56,STAT.C,ExtBa=12.00
27/08/2022,17:14:50,TEMP=20.0,BA=5.52,STAT.A,ExtBa=12.00
27/08/2022,17:20:23,TEMP=19.7,BA=5.52,STAT.A,ExtBa=12.00
27/08/2022,17:22:32,TEMP=19.7,BA=5.52,STAT.A,ExtBa=12.00
27/08/2022,17:24:41,TEMP=19.6,BA=5.52,STAT.B,ExtBa=12.00
27/08/2022,17:35:21,TEMP=18.8,BA=5.48,STAT.A,ExtBa=12.00
27/08/2022,17:39:23,TEMP=18.8,BA=5.48,STAT.D,ExtBa=12.00
27/08/2022,17:42:23,TEMP=18.9,BA=5.52,STAT.D,ExtBa=12.00
27/08/2022,17:44:22,TEMP=19.2,BA=5.52,STAT.A,ExtBa=12.00
27/08/2022,17:48:23,TEMP=18.8,BA=5.52,STAT.D,ExtBa=12.00
27/08/2022,17:51:39,TEMP=18.6,BA=5.56,STAT.A,ExtBa=12.00
27/08/2022,17:57:45,TEMP=18.2,BA=5.56,STAT.A,ExtBa=12.00
27/08/2022,18:00:23,TEMP=18.2,BA=5.60,STAT.D,ExtBa=12.00
27/08/2022,18:02:54,TEMP=18.3,BA=5.60,STAT.A,ExtBa=12.00
27/08/2022,18:06:22,TEMP=18.2,BA=5.60,STAT.D,ExtBa=12.00
27/08/2022,18:08:22,TEMP=18.4,BA=5.60,STAT.A,ExtBa=12.00